カタログに戻る

STARLINK-32671

運用中通信VLEO
NORAD 62209·PAYLOAD·🇺🇸 United States

打ち上げ Dec 4, 2024 から Cape Canaveral Space Force Station

Loading…

次のパス (今後24時間)

TLE

最新Source: CelesTrak SupGP

元期: Sep 14, 2026, 21:34 UTC

1 62209C 24229T   26257.89909722  .00016288  00000+0  59003-3 0  2577
2 62209  42.9996 282.5884 0001350 266.5104  86.1943 15.27565188    10

AllMySatでSTARLINK-32671をリアルタイム追跡

Download on the App Store